| time (UTC) | temp F | wind direction | speed MPH | gust MPH | rain 1hr in | rain 24hr in | rain mn in | humidity % | barometer mb |
| 20260506061550 | 42 | 124 | 1.0 | 4.0 | 0.00 | 0.00 | 0.00 | 56 | 1016.8 |
| 20260506050104 | 46 | 121 | 0.0 | 2.0 | 0.00 | 0.00 | 0.00 | 53 | 1016.4 |
| 20260506044544 | 48 | 150 | 0.0 | 3.0 | 0.00 | 0.00 | 0.00 | 46 | 1016.2 |
| 20260506043039 | 50 | 85 | 2.0 | 4.0 | 0.00 | 0.00 | 0.00 | 43 | 1016.1 |
| 20260506041555 | 52 | 76 | 3.0 | 7.0 | 0.00 | 0.00 | 0.00 | 38 | 1016.0 |
| 20260506040039 | 53 | 70 | 2.0 | 13.0 | 0.00 | 0.00 | 0.00 | 38 | 1015.7 |
| 20260506034549 | 54 | 111 | 2.0 | 6.0 | 0.00 | 0.00 | 0.00 | 36 | 1015.3 |
| 20260506033039 | 55 | 106 | 4.0 | 15.0 | 0.00 | 0.00 | 0.00 | 35 | 1015.0 |
| 20260506031535 | 55 | 84 | 6.0 | 11.0 | 0.00 | 0.00 | 0.00 | 34 | 1014.7 |
| 20260506030037 | 56 | 56 | 4.0 | 12.0 | 0.00 | 0.00 | 0.00 | 34 | 1014.2 |
| 20260506024534 | 57 | 39 | 7.0 | 14.0 | 0.00 | 0.00 | 0.00 | 32 | 1013.9 |
| 20260506023033 | 58 | 54 | 8.0 | 21.0 | 0.00 | 0.00 | 0.00 | 31 | 1013.4 |
| 20260506021533 | 60 | 82 | 9.0 | 20.0 | 0.00 | 0.00 | 0.00 | 30 | 1013.2 |
| 20260506020031 | 61 | 54 | 10.0 | 16.0 | 0.00 | 0.00 | 0.00 | 29 | 1012.9 |
| 20260506014531 | 62 | 46 | 12.0 | 21.0 | 0.00 | 0.00 | 0.00 | 29 | 1012.7 |
| 20260506013043 | 64 | 53 | 10.0 | 18.0 | 0.00 | 0.00 | 0.00 | 29 | 1012.5 |
| 20260506011531 | 65 | 86 | 10.0 | 17.0 | 0.00 | 0.00 | 0.00 | 28 | 1012.5 |
| 20260506010032 | 68 | 86 | 5.0 | 9.0 | 0.00 | 0.00 | 0.00 | 23 | 1012.4 |
| 20260506004529 | 68 | 74 | 3.0 | 9.0 | 0.00 | 0.00 | 0.00 | 23 | 1012.4 |
| 20260506003028 | 69 | 118 | 3.0 | 7.0 | 0.00 | 0.00 | 0.00 | 25 | 1012.3 |
| 20260506001527 | 69 | 308 | 0.0 | 5.0 | 0.00 | 0.00 | 0.00 | 21 | 1012.4 |
| 20260506000026 | 70 | 337 | 1.0 | 5.0 | 0.00 | 0.00 | 0.00 | 22 | 1012.5 |
| 20260505234525 | 69 | 303 | 2.0 | 5.0 | 0.00 | 0.00 | 0.00 | 21 | 1012.7 |
| 20260505233027 | 69 | 303 | 0.0 | 5.0 | 0.00 | 0.00 | 0.00 | 22 | 1012.7 |
| 20260505231524 | 69 | 299 | 0.0 | 5.0 | 0.00 | 0.00 | 0.00 | 22 | 1013.0 |
| 20260505230019 | 69 | 132 | 0.0 | 3.0 | 0.00 | 0.00 | 0.00 | 24 | 1013.1 |
| 20260505224517 | 68 | 32 | 2.0 | 9.0 | 0.00 | 0.00 | 0.00 | 22 | 1013.4 |
| 20260505223016 | 68 | 298 | 3.0 | 7.0 | 0.00 | 0.00 | 0.00 | 21 | 1013.4 |
| 20260505221515 | 68 | 333 | 2.0 | 5.0 | 0.00 | 0.00 | 0.00 | 22 | 1013.6 |
| 20260505220028 | 68 | 285 | 1.0 | 9.0 | 0.00 | 0.00 | 0.00 | 23 | 1013.8 |
| 20260505214518 | 68 | 64 | 5.0 | 13.0 | 0.00 | 0.00 | 0.00 | 22 | 1013.9 |
| 20260505213010 | 69 | 340 | 2.0 | 5.0 | 0.00 | 0.00 | 0.00 | 22 | 1014.0 |
| 20260505211511 | 67 | 120 | 2.0 | 6.0 | 0.00 | 0.00 | 0.00 | 22 | 1014.1 |
| 20260505210006 | 68 | 307 | 4.0 | 10.0 | 0.00 | 0.00 | 0.00 | 23 | 1014.0 |
| 20260505204506 | 67 | 154 | 2.0 | 7.0 | 0.00 | 0.00 | 0.00 | 26 | 1014.3 |
| 20260505203002 | 67 | 307 | 5.0 | 11.0 | 0.00 | 0.00 | 0.00 | 23 | 1014.4 |
| 20260505201501 | 66 | 342 | 5.0 | 11.0 | 0.00 | 0.00 | 0.00 | 23 | 1014.5 |
| 20260505200110 | 67 | 338 | 3.0 | 8.0 | 0.00 | 0.00 | 0.00 | 24 | 1014.5 |
| 20260505194557 | 66 | 39 | 1.0 | 7.0 | 0.00 | 0.00 | 0.00 | 25 | 1014.5 |
| 20260505193102 | 64 | 84 | 0.0 | 6.0 | 0.00 | 0.00 | 0.00 | 27 | 1014.7 |
| 20260505191602 | 63 | 149 | 3.0 | 7.0 | 0.00 | 0.00 | 0.00 | 28 | 1014.7 |
| 20260505190053 | 64 | 299 | 1.0 | 5.0 | 0.00 | 0.00 | 0.00 | 28 | 1014.9 |
| 20260505184551 | 63 | 285 | 2.0 | 5.0 | 0.00 | 0.00 | 0.00 | 30 | 1015.0 |
| 20260505183048 | 63 | 307 | 2.0 | 7.0 | 0.00 | 0.00 | 0.00 | 29 | 1015.2 |
| 20260505181555 | 62 | 118 | 2.0 | 9.0 | 0.00 | 0.00 | 0.00 | 34 | 1015.3 |
| 20260505180045 | 62 | 333 | 2.0 | 6.0 | 0.00 | 0.00 | 0.00 | 29 | 1015.6 |
| 20260505174542 | 61 | 226 | 1.0 | 4.0 | 0.00 | 0.00 | 0.00 | 36 | 1015.7 |
| 20260505173040 | 60 | 61 | 0.0 | 2.0 | 0.00 | 0.00 | 0.00 | 34 | 1016.0 |
| 20260505171537 | 58 | 56 | 1.0 | 5.0 | 0.00 | 0.00 | 0.00 | 35 | 1016.1 |
| 20260505170034 | 57 | 281 | 0.0 | 4.0 | 0.00 | 0.00 | 0.00 | 36 | 1016.2 |
| 20260505164530 | 56 | 46 | 1.0 | 4.0 | 0.00 | 0.00 | 0.00 | 41 | 1016.4 |
| 20260505163034 | 55 | 162 | 1.0 | 3.0 | 0.00 | 0.00 | 0.00 | 47 | 1016.6 |
| 20260505161537 | 53 | 9 | 1.0 | 4.0 | 0.00 | 0.00 | 0.00 | 52 | 1016.6 |
| 20260505153018 | 50 | 300 | 0.0 | 1.0 | 0.00 | 0.00 | 0.00 | 57 | 1016.9 |
| 20260505151517 | 49 | 259 | 0.0 | 1.0 | 0.00 | 0.00 | 0.00 | 60 | 1017.0 |
| 20260505124510 | 31 | 136 | 0.0 | 0.0 | 0.00 | 0.00 | 0.00 | 89 | 1016.1 |
| 20260505123004 | 31 | 184 | 0.0 | 1.0 | 0.00 | 0.00 | 0.00 | 88 | 1015.9 |
| 20260505121505 | 31 | 133 | 0.0 | 0.0 | 0.00 | 0.00 | 0.00 | 88 | 1015.8 |
| 20260505120113 | 32 | 133 | 0.0 | 1.0 | 0.00 | 0.00 | 0.00 | 86 | 1015.6 |
| 20260505114556 | 32 | 132 | 0.0 | 1.0 | 0.00 | 0.00 | 0.00 | 86 | 1015.6 |
| 20260505113110 | 32 | 148 | 0.0 | 1.0 | 0.00 | 0.00 | 0.00 | 86 | 1015.4 |
| 20260505111555 | 33 | 106 | 0.0 | 1.0 | 0.00 | 0.00 | 0.00 | 87 | 1015.5 |
| 20260505101550 | 36 | 136 | 0.0 | 2.0 | 0.00 | 0.00 | 0.00 | 80 | 1015.4 |
| 20260505100042 | 35 | 126 | 0.0 | 1.0 | 0.00 | 0.00 | 0.00 | 83 | 1015.3 |
| 20260505094541 | 36 | 115 | 0.0 | 1.0 | 0.00 | 0.00 | 0.00 | 82 | 1015.2 |
| 20260505093040 | 36 | 132 | 0.0 | 0.0 | 0.00 | 0.00 | 0.00 | 83 | 1015.3 |
| 20260505091539 | 36 | 136 | 0.0 | 1.0 | 0.00 | 0.00 | 0.00 | 83 | 1015.1 |
| 20260505090042 | 36 | 140 | 0.0 | 0.0 | 0.00 | 0.00 | 0.00 | 82 | 1015.2 |
| 20260505084539 | 38 | 158 | 0.0 | 1.0 | 0.00 | 0.00 | 0.00 | 79 | 1015.0 |
| 20260505083030 | 38 | 174 | 0.0 | 0.0 | 0.00 | 0.00 | 0.00 | 80 | 1014.9 |
| 20260505081527 | 39 | 200 | 0.0 | 1.0 | 0.00 | 0.00 | 0.00 | 78 | 1014.8 |
| 20260505080039 | 40 | 161 | 0.0 | 0.0 | 0.00 | 0.00 | 0.00 | 76 | 1014.9 |
| 20260505074527 | 40 | 127 | 0.0 | 1.0 | 0.00 | 0.00 | 0.00 | 77 | 1014.8 |
| 20260505073028 | 41 | 240 | 0.0 | 1.0 | 0.00 | 0.00 | 0.00 | 74 | 1014.7 |
| 20260505071517 | 42 | 114 | 0.0 | 1.0 | 0.00 | 0.00 | 0.00 | 74 | 1014.5 |
| 20260505070013 | 43 | 116 | 0.0 | 3.0 | 0.00 | 0.00 | 0.00 | 70 | 1014.2 |
| 20260505064509 | 46 | 76 | 0.0 | 1.0 | 0.00 | 0.00 | 0.00 | 60 | 1014.2 |
| 20260505063007 | 46 | 131 | 0.0 | 2.0 | 0.00 | 0.00 | 0.00 | 63 | 1014.1 |